COSMOS 1459

Satellite information

Favourite Embed

Satellite Type and Status

PAYLOADIN ORBIT

Key statistics

Satellite COSMOS 1459 at a glance.

Uptime

15517

Days in orbit

Revolutions

≈ 13.8

Per day

Orbit

LEO

Low Earth Orbit

Inclination

83.0

Latest

Satellite identification and parameters

Extended collection of information and parameters for COSMOS 1459.

Object identification

Identified? True

Debris? False

Object name: COSMOS 1459

International designator: 1983-042A

Object number (NORAD): 14057

Object ID (CCSDS): 14057

Country: COMMONWEALTH OF INDEPENDENT STATES (CIS)

Current information (Y/N): Y

RCS size: LARGE

Orbital parameters

Period: 104.591 minutes

Inclination: 82.9753 deg

SMA: 7353.403 km

Apoapsis: 1012.51 km

Periapsis: 938.026 km

RAAN: 352.174 deg

Eccentricy: 0.0050646

Argument of periapsis: 111.7897 deg

Mean anomaly: 248.866 deg

Mean motion: 13.76797947 rev/day

Mean motion (dot): 0.00000069 rev/day2

B* drag term: 0.000053296 1/REarth

Two-line elements (TLE)

Creation date: Oct. 27, 2025, 2:36 p.m.

Reference frame: TEME

Reference center: EARTH

Epoch: Oct. 27, 2025, 5:49 a.m. UTC

TLE line 0: 0 COSMOS 1459

TLE line 1: 1 14057U 83042A 25300.24286182 .00000069 00000-0 53296-4 0 9991

TLE line 2: 2 14057 82.9753 352.1740 0050646 111.7897 248.8660 13.76797947133685

Live tracking on map

Real-time ground track for satellite COSMOS 1459.

In-orbit conjunctions

A list of the most updated potential collisions computed for object COSMOS 1459.

Target Orbit TCA Probability of collision Miss distance Type
SL-16 DEB LEO 2025-10-30 04:09:08 0.0001631464 452.0 (m) DEBRIS
COSMOS 1275 DEB LEO 2025-10-01 20:42:08 0.006634615 130.0 (m) DEBRIS

Associated space launch

Navigation satellite providing location information for the Tsiklon-B navigation system

COSMOS 1459 was lifted into orbit during the mission ‘Kosmos-3M | Parus 38’, on board a Kosmos-3M space rocket.

The launch took place on May 6, 1983, 3 a.m. from 132/2.

For more information about the launch, click the button.

Launch to space Kosmos-3M | Parus 38
Kosmos-3M | Parus 38

Agency: N/A

Status: Launch Successful

Launch date: May 6, 1983, 3 a.m. UTC

Rocket: Kosmos-3M

Launch pad: 132/2

Location: Plesetsk Cosmodrome, Russian Federation

...

Latest news about this satellite

There are no fresh news available about this satellite. Check back as we update our databases every day.


Newsletter sign-up

Weekly statistics, charts and insights to help you stay on top of the space industry.